This demonstration page uses our WeatherBlox Daily Observations layout. Learn more.

Left ArrowRight Arrow

39.12711, -84.51439

Hourly Observations for April 13, 2021

Temp ( °F °C ) Dew Point ( °F °C ) Humidity (%) Winds ( mph kmh ) Pressure ( in mb ) Visibility ( mi km ) Precip ( " mm )
12:53 am 00:53 Clear with Mist and Fog 44 6.7 43 6.1 96 96 Calm 30.02 1017 4 6.43736 0 0
12:57 am 00:57 Clear with Mist and Fog 43 6.1 41 5 93 93 Calm 30.04 1017 1.75 2.816345 0 0
1:09 am 01:09 Clear with Fog 44 6.7 43 6.1 96 96 Calm 30.04 1017 0.5 0.80467 0 0
1:30 am 01:30 Clear with Mist and Fog 44 6.7 42 5.6 93 93 Calm 30.04 1017 1.75 2.816345 0 0
1:43 am 01:43 Clear with Fog 43 6.1 42 5.6 97 97 Calm 30.05 1017 0.5 0.80467 0 0
1:53 am 01:53 Clear with Fog 43 6.1 42 5.6 97 97 Calm 30.04 1017 0.5 0.80467 0 0
2:34 am 02:34 Mostly Cloudy with Fog 42 5.6 41 5 96 96 Calm 30.06 1018 0.5 0.80467 0 0
2:53 am 02:53 Mostly Cloudy with Fog 43 6.1 41 5 93 93 Calm 30.04 1017 0.5 0.80467 0 0
2:58 am 02:58 Clear with Mist and Fog 43 6.1 42 5.6 97 97 NE 3 6 30.06 1018 1 1.60934 0 0
3:08 am 03:08 Clear with Mist and Fog 43 6.1 42 5.6 97 97 Calm 30.06 1018 3 4.82802 0 0
3:27 am 03:27 Clear with Mist and Fog 42 5.6 41 5 96 96 Calm 30.07 1018 1.75 2.816345 0 0
3:38 am 03:38 Clear with Fog 40 4.4 39 3.9 97 97 Calm 30.07 1018 0.5 0.80467 0 0
3:53 am 03:53 Clear with Fog 40 4.4 39 3.9 97 97 Calm 30.06 1018 0.5 0.80467 0 0
4:07 am 04:07 Mostly Cloudy with Fog 40 4.4 39 3.9 97 97 Calm 30.09 1019 0.5 0.80467 0 0
4:13 am 04:13 Partly Cloudy with Fog 41 5 40 4.4 96 96 Calm 30.09 1019 0.25 0.402335 0 0
4:21 am 04:21 Partly Cloudy with Mist and Fog 41 5 40 4.4 96 96 Calm 30.09 1019 0.75 1.207005 0 0
4:45 am 04:45 Mostly Clear with Mist and Fog 40 4.4 39 3.9 97 97 Calm 30.09 1019 2 3.21868 0 0
4:53 am 04:53 Mostly Clear 42 5.6 41 5 96 96 Calm 30.07 1018 10 16.0934 0 0
5:01 am 05:01 Clear with Mist and Fog 43 6.1 41 5 93 93 Calm 30.1 1019 1.5 2.41401 0 0
5:13 am 05:13 Clear with Mist and Fog 40 4.4 40 4.4 100 100 Calm 30.09 1019 3 4.82802 0 0
5:38 am 05:38 Mostly Clear with Mist and Fog 42 5.6 41 5 96 96 Calm 30.1 1019 2.5 4.02335 0 0
5:46 am 05:46 Mostly Cloudy with Mist and Fog 41 5 39 3.9 93 93 Calm 30.1 1019 1.5 2.41401 0 0
5:53 am 05:53 Mostly Cloudy with Fog 42 5.6 40 4.4 92 92 Calm 30.09 1019 0.5 0.80467 0 0
6:01 am 06:01 Partly Cloudy with Mist and Fog 42 5.6 41 5 96 96 Calm 30.11 1020 1.5 2.41401 0 0
6:03 am 06:03 Partly Cloudy with Mist and Fog 41 5 40 4.4 96 96 Calm 30.11 1020 3 4.82802 0 0
6:19 am 06:19 Mostly Clear with Mist and Fog 40 4.4 39 3.9 97 97 Calm 30.11 1020 2 3.21868 0 0
6:28 am 06:28 Partly Cloudy with Mist and Fog 42 5.6 40 4.4 92 92 NE 3 6 30.11 1020 6 9.65604 0 0
6:53 am 06:53 Partly Cloudy 41 5 40 4.4 96 96 Calm 30.09 1019 9 14.48406 0 0
7:53 am 07:53 Cloudy 45 7.2 43 6.1 93 93 Calm 30.11 1020 10 16.0934 0 0
8:53 am 08:53 Cloudy 48 8.9 45 7.2 89 89 Calm 30.14 1021 10 16.0934 0 0
9:53 am 09:53 Cloudy 51 10.6 48 8.9 89 89 Calm 30.17 1022 10 16.0934 0 0
10:53 am 10:53 Cloudy 54 12.2 41 5 62 62 Calm 30.18 1022 10 16.0934 0 0
11:53 am 11:53 Mostly Cloudy 58 14.4 39 3.9 50 50 Calm 30.17 1022 10 16.0934 0 0
12:53 pm 12:53 Mostly Sunny 61 16.1 40 4.4 46 46 SSW 5 7 30.14 1021 10 16.0934 0 0
1:53 pm 13:53 Sunny 63 17.2 34 1.1 34 34 VRB 5 7 30.13 1020 10 16.0934 0 0
2:53 pm 14:53 Mostly Sunny 65 18.3 37 2.8 36 36 VRB 5 7 30.12 1020 10 16.0934 0 0
3:53 pm 15:53 Sunny 67 19.4 38 3.3 35 35 WNW 12 19 30.1 1019 10 16.0934 0 0
4:53 pm 16:53 Sunny 67 19.4 40 4.4 37 37 WNW 12 19 30.08 1019 10 16.0934 0 0
5:53 pm 17:53 Cloudy 65 18.3 41 5 42 42 SW 9 15 30.08 1019 10 16.0934 0 0
6:53 pm 18:53 Partly Cloudy 65 18.3 41 5 42 42 SW 6 9 30.09 1019 10 16.0934 0 0
7:53 pm 19:53 Mostly Sunny 62 16.7 40 4.4 44 44 W 5 7 30.08 1019 10 16.0934 0 0
8:53 pm 20:53 Partly Cloudy 60 15.6 42 5.6 52 52 Calm 30.1 1019 10 16.0934 0 0
9:53 pm 21:53 Mostly Cloudy 51 10.6 44 6.7 77 77 S 3 6 30.12 1020 10 16.0934 0 0
10:53 pm 22:53 Cloudy 54 12.2 46 7.8 75 75 Calm 30.13 1020 10 16.0934 0 0
11:53 pm 23:53 Cloudy 53 11.7 46 7.8 77 77 Calm 30.12 1020 10 16.0934 0 0

Powered by AerisWeather